Weather History for Cleveland, OH

Change the Weather History Date:

Saturday, March 2, 2013

  Actual Average Record
Temperature  
Mean Temperature 25 °F 34 °F  
Max Temperature 27 °F 41 °F 64 °F (1991)
Min Temperature 23 °F 26 °F -4 °F (1978)
Degree Days  
Heating Degree Days 40 31  
Month to date heating degree days 77 62  
Since 1 July heating degree days 4256 4279  
Cooling Degree Days 0 0  
Month to date cooling degree days 0 0  
Year to date cooling degree days 0 0  
Moisture  
Dew Point 22 °F    
Average Humidity 84    
Maximum Humidity 92    
Minimum Humidity 75    
Precipitation  
Precipitation 0.06 in 0.09 in 0.62 in (1982)
Month to date precipitation 0.10 0.17  
Year to date precipitation 4.57 5.23  
Snow  
Snow 0.80 in 0.50 in - ()
Month to date snowfall 1.6 1.0  
Since 1 July snowfall 42.3 53.2  
Snow Depth 1.00 in    
Sea Level Pressure  
Sea Level Pressure 30.03 in    
Wind  
Wind Speed 12 mph (North)    
Max Wind Speed 17 mph    
Max Gust Speed 22 mph    
Visibility 6 miles    
Events Snow    
T = Trace of Precipitation, MM = Missing Value Source: NWS Daily Summary

Daily Weather History Graph

Daily Weather History Graph

Search for Another Location

Airport:

Trip Planner

Search our weather history database for the weather conditions in past years. The results will help you decide how hot, cold, wet, or windy it might be!

Date:

Astronomy

Mar. 02, 2013 Rise Set
Actual Time 6:59 AM EST 6:19 PM EST
Civil Twilight 6:32 AM EST 6:47 PM EST
Nautical Twilight 6:00 AM EST 7:19 PM EST
Astronomical Twilight 5:28 AM EST 7:51 PM EST
Moon No Moon Rise 9:23 AM EST (3/2)
Length of Visible Light 12h 15m
Length of Day
11h 19m
Waning Gibbous, 74% of the Moon is Illuminated
Mar 2
Waning Gibbous
Mar 4
Last Quarter
Mar 11
New
Mar 19
First Quarter
Mar 27
Full

Hourly Weather History & Observations

Time (EST) Temp. Windchill Dew Point Humidity Pressure Visibility Wind Dir Wind Speed Gust Speed Precip Events Conditions
12:24 AM 25.0 °F 14.8 °F 23.0 °F 92% 30.03 in 8.0 mi NNE 10.4 mph - 0.00 in Snow Light Snow
12:51 AM 25.0 °F 16.3 °F 23.0 °F 92% 30.06 in 7.0 mi NNE 8.1 mph - 0.00 in Snow Light Snow
1:00 AM 25.0 °F 15.5 °F 23.0 °F 92% 30.02 in 7.0 mi NNE 9.2 mph - 0.00 in Snow Light Snow
1:48 AM 24.8 °F 15.3 °F 23.0 °F 93% 30.02 in 9.0 mi NNE 9.2 mph - N/A Snow Light Snow
1:51 AM 25.0 °F 14.8 °F 23.0 °F 92% 30.05 in 9.0 mi NNE 10.4 mph - 0.00 in Snow Light Snow
2:17 AM 25.0 °F 15.5 °F 21.0 °F 85% 30.02 in 9.0 mi NNE 9.2 mph - 0.00 in Snow Light Snow
2:51 AM 25.0 °F 16.3 °F 19.9 °F 81% 30.04 in 9.0 mi NNE 8.1 mph - 0.00 in Snow Light Snow
3:51 AM 24.1 °F 19.7 °F 21.0 °F 88% 30.03 in 6.0 mi North 3.5 mph - 0.00 in Snow Light Snow
4:30 AM 25.0 °F 20.7 °F 21.9 °F 88% 29.99 in 7.0 mi NNW 3.5 mph - 0.01 in Snow Light Snow
4:51 AM 25.0 °F 17.1 °F 21.9 °F 88% 30.03 in 4.0 mi NNE 6.9 mph - 0.01 in Snow Light Snow
5:26 AM 25.0 °F 20.7 °F 21.9 °F 88% 30.00 in 3.0 mi North 3.5 mph - 0.01 in Snow Light Snow
5:51 AM 25.0 °F 15.5 °F 21.9 °F 88% 30.04 in 4.0 mi NNE 9.2 mph - 0.02 in Snow Light Snow
6:22 AM 25.0 °F 16.3 °F 21.9 °F 88% 30.00 in 3.0 mi North 8.1 mph - 0.00 in Snow Light Snow
6:33 AM 24.1 °F 13.7 °F 21.9 °F 91% 30.00 in 4.0 mi North 10.4 mph - 0.00 in Snow Light Snow
6:51 AM 24.1 °F 12.5 °F 19.9 °F 84% 30.04 in 6.0 mi North 12.7 mph - 0.00 in Snow Light Snow
7:43 AM 23.0 °F 12.4 °F 19.9 °F 88% 30.01 in 4.0 mi North 10.4 mph - 0.00 in Snow Light Snow
7:51 AM 24.1 °F 12.5 °F 21.0 °F 88% 30.04 in 2.5 mi North 12.7 mph - 0.00 in Snow Light Snow
7:54 AM 23.0 °F 11.7 °F 19.9 °F 88% 30.01 in 1.8 mi North 11.5 mph - 0.00 in Snow Light Snow
8:06 AM 24.1 °F 14.4 °F 19.9 °F 84% 30.01 in 2.5 mi North 9.2 mph - 0.00 in Snow Light Snow
8:31 AM 24.1 °F 13.7 °F 21.0 °F 88% 30.01 in 1.5 mi North 10.4 mph - 0.00 in Snow Light Snow
8:38 AM 24.1 °F 15.2 °F 21.0 °F 88% 30.01 in 2.0 mi NNW 8.1 mph - 0.00 in Snow Light Snow
8:43 AM 24.1 °F 14.4 °F 21.0 °F 88% 30.01 in 3.0 mi NNW 9.2 mph - 0.00 in Snow Light Snow
8:51 AM 24.1 °F 12.5 °F 21.9 °F 91% 30.04 in 4.0 mi NNW 12.7 mph - 0.00 in Snow Light Snow
8:59 AM 25.0 °F 13.1 °F 21.9 °F 88% 30.01 in 3.0 mi NNW 13.8 mph - 0.00 in Snow Light Snow
9:17 AM 26.1 °F 15.6 °F 23.0 °F 88% 30.01 in 5.0 mi North 11.5 mph - 0.00 in Snow Light Snow
9:20 AM 26.1 °F 15.0 °F 23.0 °F 88% 30.01 in 5.0 mi NNW 12.7 mph - 0.00 in Snow Light Snow
9:32 AM 26.1 °F 14.5 °F 21.9 °F 84% 30.01 in 5.0 mi NNW 13.8 mph 21.9 mph 0.00 in Snow Light Snow
9:47 AM 24.8 °F 12.9 °F 21.2 °F 86% 30.02 in 4.0 mi North 13.8 mph - 0.00 in Snow Light Snow
9:51 AM 26.1 °F 14.5 °F 21.9 °F 84% 30.05 in 5.0 mi North 13.8 mph - 0.00 in Snow Light Snow
10:15 AM 26.1 °F 15.6 °F 21.9 °F 84% 30.02 in 2.5 mi North 11.5 mph - 0.00 in Snow Light Snow
10:22 AM 25.0 °F 15.5 °F 21.0 °F 85% 30.02 in 4.0 mi North 9.2 mph 20.7 mph 0.00 in Snow Light Snow
10:47 AM 26.6 °F 14.7 °F 21.2 °F 80% 30.02 in 3.0 mi NNW 15.0 mph 20.7 mph 0.00 in Snow Light Snow
10:51 AM 26.1 °F 14.5 °F 19.9 °F 78% 30.05 in 5.0 mi North 13.8 mph 20.7 mph 0.00 in Snow Light Snow
11:07 AM 27.0 °F 16.1 °F 21.9 °F 81% 30.01 in 2.5 mi North 12.7 mph - 0.00 in Snow Light Snow
11:24 AM 26.1 °F 14.5 °F 21.0 °F 81% 30.02 in 1.8 mi North 13.8 mph - 0.00 in Snow Light Snow
11:40 AM 25.0 °F 13.6 °F 21.0 °F 85% 30.02 in 2.0 mi North 12.7 mph - 0.00 in Snow Light Snow
11:48 AM 26.6 °F 17.5 °F 21.2 °F 80% 30.02 in 7.0 mi North 9.2 mph - 0.00 in Snow Light Snow
11:51 AM 26.1 °F 15.0 °F 21.0 °F 81% 30.05 in 9.0 mi North 12.7 mph - 0.00 in   Overcast
12:04 PM 26.1 °F 15.0 °F 19.9 °F 78% 30.02 in 10.0 mi NNW 12.7 mph - 0.00 in Snow Light Snow
12:51 PM 26.1 °F 16.2 °F 21.9 °F 84% 30.04 in 8.0 mi North 10.4 mph - 0.00 in Snow Light Snow
12:59 PM 26.1 °F 16.2 °F 21.9 °F 84% 30.01 in 9.0 mi North 10.4 mph - 0.00 in Snow Light Snow
1:28 PM 26.1 °F 15.6 °F 21.0 °F 81% 30.00 in 6.0 mi North 11.5 mph - 0.01 in Snow Light Snow
1:51 PM 27.0 °F 16.7 °F 21.9 °F 81% 30.03 in 6.0 mi North 11.5 mph - 0.01 in Snow Light Snow
2:30 PM 27.0 °F 15.2 °F 21.0 °F 78% 29.99 in 2.5 mi NNW 15.0 mph - 0.00 in Snow Light Snow
2:51 PM 27.0 °F 15.6 °F 23.0 °F 85% 30.03 in 4.0 mi North 13.8 mph - 0.00 in Snow Light Snow
3:15 PM 27.0 °F 15.6 °F 21.0 °F 78% 29.99 in 8.0 mi North 13.8 mph - 0.00 in Snow Light Snow
3:22 PM 27.0 °F 16.7 °F 21.9 °F 81% 30.00 in 7.0 mi North 11.5 mph - 0.00 in Snow Light Snow
3:51 PM 27.0 °F 15.6 °F 21.0 °F 78% 30.03 in 7.0 mi NNW 13.8 mph - 0.00 in Snow Light Snow
4:08 PM 27.0 °F 16.1 °F 23.0 °F 85% 30.00 in 6.0 mi NNW 12.7 mph - 0.00 in Snow Light Snow
4:51 PM 27.0 °F 16.7 °F 23.0 °F 85% 30.03 in 6.0 mi NNW 11.5 mph - 0.00 in Snow Light Snow
5:20 PM 27.0 °F 16.1 °F 23.0 °F 85% 30.00 in 7.0 mi NNW 12.7 mph - 0.00 in Snow Light Snow
5:51 PM 27.0 °F 14.7 °F 23.0 °F 85% 30.04 in 7.0 mi North 16.1 mph - 0.00 in Snow Light Snow
6:02 PM 27.0 °F 15.6 °F 23.0 °F 85% 30.01 in 6.0 mi NNW 13.8 mph - 0.00 in Snow Light Snow
6:51 PM 27.0 °F 15.2 °F 21.9 °F 81% 30.05 in 8.0 mi North 15.0 mph - 0.00 in Snow Light Snow
7:38 PM 26.1 °F 14.0 °F 23.0 °F 88% 30.02 in 8.0 mi NNW 15.0 mph - 0.00 in Snow Light Snow
7:51 PM 26.1 °F 14.5 °F 23.0 °F 88% 30.05 in 9.0 mi NW 13.8 mph - 0.00 in Snow Light Snow
8:51 PM 26.1 °F 14.5 °F 21.9 °F 84% 30.05 in 9.0 mi NW 13.8 mph - 0.00 in Snow Light Snow
9:51 PM 26.1 °F 14.5 °F 21.9 °F 84% 30.06 in 9.0 mi NNW 13.8 mph - 0.00 in Snow Light Snow
10:39 PM 25.0 °F 14.2 °F 21.9 °F 88% 30.02 in 2.0 mi NW 11.5 mph - 0.00 in Snow Light Snow
10:51 PM 25.0 °F 14.2 °F 21.9 °F 88% 30.05 in 2.0 mi NW 11.5 mph - 0.01 in Snow Light Snow
11:28 PM 25.0 °F 13.6 °F 21.0 °F 85% 30.02 in 3.0 mi NNW 12.7 mph - 0.00 in Snow Light Snow
11:51 PM 24.1 °F 13.7 °F 21.0 °F 88% 30.05 in 2.5 mi NNW 10.4 mph - 0.00 in Snow Light Snow
11:58 PM 24.1 °F 12.5 °F 21.0 °F 88% 30.02 in 3.0 mi NNW 12.7 mph - 0.00 in Snow Light Snow